Location: Newark
(41.0400°S, 62.7845°W)
Time: 23:24:36
(UTC+00:00)

Courier 1B Rocket - Pass Details

Date: 03 December 2021
Orbit: 920 x 1202 km, 28.2° (Epoch: 28 January)

Event Time Altitude Azimuth Distance (km) Brightness Sun altitude
Rises 18:59:02 0° 281° (W) 4,107 8.9 48.3°
Reaches altitude 10° 19:02:34 10° 294° (WNW) 3,141 8.6 47.6°
Maximum altitude 19:08:22 23° 342° (NNW) 2,296 7.6 46.6°
Drops below altitude 10° 19:14:03 10° 31° (NNE) 3,064 7.6 45.5°
Sets 19:17:28 0° 44° (NE) 3,983 7.9 44.9°
